User: anonymous   Login
Location: Dresden
(51.0300°N, 13.7800°E)
Time: 03:40:34
(UTC+01:00)
Language:

NOAA 19 - Orbit

View from above orbital plane
View from above orbital plane
View from above satellite
View from above satellite

Ground track
Ground track

The orbit data is extracted from the following two-line orbital elements,

1 33591U 09005A   25344.75435235  .00000123  00000-0  89547-4 0  9990
2 33591  98.9770  50.2998 0013499 199.5449 160.5207 14.13435654867865
Epoch (UTC): 10 December 2025 18:06:16
Eccentricity: 0.0013499
inclination: 98.9770°
perigee height: 838 km
apogee height: 857 km
right ascension of ascending node: 50.2998°
argument of perigee: 199.5449°
revolutions per day: 14.13435654
mean anomaly at epoch: 160.5207°
orbit number at epoch: 86786

The dashed part of the orbit path shows where the satellite is in the earth's shadow,  

DLR